,,,PA_Meas_PMT16A,,PR_Meas_QMR101_102,,RH_Meas_QMH101,,SR_Meas_QMS101,,TA_Meas_QMH101,,GenWind,,GenWind,
date,time,status,PA,status,PR,status,RH,status,SR,status,TA,status,DirAvg,status,SpdAvg,
2010-01-02, 00:00:04,VALID,1003.66,VALID,0,VALID,95.689,VALID,0,VALID,23.7814,VALID,354,VALID,0.686719,
2010-01-02, 00:01:04,VALID,1003.64,VALID,0,VALID,95.6814,VALID,0,VALID,23.7796,VALID,354,VALID,0.611719,
2010-01-02, 00:02:04,VALID,1003.65,VALID,0,VALID,95.689,VALID,0,VALID,23.7619,VALID,354,VALID,0.484375,
2010-01-02, 00:03:04,VALID,1003.63,VALID,0,VALID,95.689,VALID,0,VALID,23.7212,VALID,354,VALID,0.468359,
2010-01-02, 00:04:04,VALID,1003.64,VALID,0,VALID,95.689,VALID,0,VALID,23.7425,VALID,354,VALID,0.526172,
2010-01-02, 00:05:04,VALID,1003.63,VALID,0,VALID,95.6738,VALID,0,VALID,23.7425,VALID,354,VALID,0.373437,
2010-01-02, 00:06:04,VALID,1003.63,VALID,0,VALID,95.689,VALID,0,VALID,23.7425,VALID,354,VALID,0.467578,
2010-01-02, 00:07:04,VALID,1003.63,VALID,0,VALID,95.6967,VALID,0,VALID,23.723,VALID,354,VALID,0.382813,
2010-01-02, 00:08:04,VALID,1003.64,VALID,0,VALID,95.689,VALID,0,VALID,23.7443,VALID,354,VALID,0.0972656,
2010-01-02, 00:09:04,VALID,1003.63,VALID,0,VALID,95.6738,VALID,0,VALID,23.7443,VALID,353,VALID,0.0730469,
2010-01-02, 00:10:04,VALID,1003.63,VALID,0,VALID,95.6967,VALID,0,VALID,23.7425,VALID,352,VALID,0.396484,
2010-01-02, 00:11:04,VALID,1003.63,VALID,0,VALID,95.6967,VALID,0,VALID,23.7425,VALID,352,VALID,0.390625,
2010-01-02, 00:12:04,VALID,1003.62,VALID,0,VALID,95.6967,VALID,0,VALID,23.7425,VALID,352,VALID,0.466797,
2010-01-02, 00:13:04,VALID,1003.64,VALID,0,VALID,95.6814,VALID,0,VALID,23.7425,VALID,352,VALID,0.469922,
2010-01-02, 00:14:04,VALID,1003.61,VALID,0,VALID,95.689,VALID,0,VALID,23.7425,VALID,352,VALID,0.444531,
2010-01-02, 00:15:04,VALID,1003.63,VALID,0,VALID,95.6738,VALID,0,VALID,23.7017,VALID,352,VALID,0.546875,
2010-01-02, 00:16:04,VALID,1003.6,VALID,0,VALID,95.6967,VALID,0,VALID,23.7425,VALID,352,VALID,0.484375,
2010-01-02, 00:17:04,VALID,1003.63,VALID,0,VALID,95.689,VALID,0,VALID,23.7619,VALID,352,VALID,0.366797,
2010-01-02, 00:18:04,VALID,1003.64,VALID,0,VALID,95.6814,VALID,0,VALID,23.7619,VALID,352,VALID,0.361328,
2010-01-02, 00:19:04,VALID,1003.66,VALID,0,VALID,95.6662,VALID,0,VALID,23.7832,VALID,352,VALID,0.417578,
2010-01-02, 00:20:04,VALID,1003.65,VALID,0,VALID,95.6814,VALID,0,VALID,23.8221,VALID,352,VALID,0.123438,
2010-01-02, 00:21:04,VALID,1003.67,VALID,0,VALID,95.6814,VALID,0,VALID,23.8805,VALID,352,VALID,0.550391,
2010-01-02, 00:22:04,VALID,1003.69,VALID,0,VALID,95.6814,VALID,0,VALID,23.8593,VALID,352,VALID,0.535937,
2010-01-02, 00:23:04,VALID,1003.68,VALID,0,VALID,95.7043,VALID,0,VALID,23.8398,VALID,352,VALID,0.626172,
2010-01-02, 00:24:04,VALID,1003.71,VALID,0,VALID,95.6967,VALID,0,VALID,23.8009,VALID,354,VALID,0.603906,
2010-01-02, 00:25:04,VALID,1003.67,VALID,0,VALID,95.6967,VALID,0,VALID,23.8009,VALID,14,VALID,1.08867,
2010-01-02, 00:26:04,VALID,1003.66,VALID,0,VALID,95.6814,VALID,0,VALID,23.8982,VALID,7,VALID,1.16094,
2010-01-02, 00:27:04,VALID,1003.64,VALID,0,VALID,95.6738,VALID,0,VALID,23.9566,VALID,43,VALID,0.286328,
2010-01-02, 00:28:04,VALID,1003.62,VALID,0,VALID,95.6738,VALID,0,VALID,24.0345,VALID,23,VALID,1.00742,
2010-01-02, 00:29:04,VALID,1003.58,VALID,0,VALID,95.6662,VALID,0,VALID,24.1531,VALID,358,VALID,0.651563,
2010-01-02, 00:30:04,VALID,1003.58,VALID,0,VALID,95.6433,VALID,0,VALID,24.1902,VALID,12,VALID,1.32617,
2010-01-02, 00:31:04,VALID,1003.57,VALID,0,VALID,95.6433,VALID,0,VALID,24.2504,VALID,3,VALID,1.10273,
2010-01-02, 00:32:04,VALID,1003.57,VALID,0,VALID,95.628,VALID,0,VALID,24.2894,VALID,32,VALID,1.27852,
2010-01-02, 00:33:04,VALID,1003.57,VALID,0,VALID,95.5975,VALID,0,VALID,24.3265,VALID,32,VALID,1.51484,
2010-01-02, 00:34:04,VALID,1003.56,VALID,0,VALID,95.5822,VALID,0,VALID,24.3849,VALID,2,VALID,1.07227,
2010-01-02, 00:35:04,VALID,1003.54,VALID,0,VALID,95.5594,VALID,0,VALID,24.4433,VALID,357,VALID,1.20859,
2010-01-02, 00:36:04,VALID,1003.53,VALID,0,VALID,95.5288,VALID,0,VALID,24.4841,VALID,2,VALID,0.957031,
2010-01-02, 00:37:04,VALID,1003.49,VALID,0,VALID,95.4983,VALID,0,VALID,24.4646,VALID,20,VALID,2.67578,
2010-01-02, 00:38:04,VALID,1003.47,VALID,0,VALID,95.3991,VALID,0,VALID,24.5388,VALID,356,VALID,2.29805,
2010-01-02, 00:39:04,VALID,1003.47,VALID,0,VALID,95.2695,VALID,0,VALID,24.6398,VALID,21,VALID,1.92422,
2010-01-02, 00:40:04,VALID,1003.48,VALID,0,VALID,95.1016,VALID,0,VALID,24.638,VALID,358,VALID,1.65703,
2010-01-02, 00:41:04,VALID,1003.45,VALID,0,VALID,94.8194,VALID,0,VALID,24.6769,VALID,18,VALID,1.8418,
2010-01-02, 00:42:04,VALID,1003.43,VALID,0,VALID,94.4532,VALID,0,VALID,24.6964,VALID,25,VALID,2.26602,
2010-01-02, 00:43:04,VALID,1003.42,VALID,0,VALID,93.9954,VALID,0,VALID,24.7372,VALID,20,VALID,1.28516,
2010-01-02, 00:44:04,VALID,1003.41,VALID,0,VALID,93.4462,VALID,0,VALID,24.6964,VALID,11,VALID,1.33438,
2010-01-02, 00:45:04,VALID,1003.38,VALID,0,VALID,92.6451,VALID,0,VALID,24.6769,VALID,37,VALID,2.34414,
2010-01-02, 00:46:04,VALID,1003.39,VALID,0,VALID,91.9738,VALID,0,VALID,24.6983,VALID,28,VALID,2.28594,
2010-01-02, 00:47:04,VALID,1003.35,VALID,0,VALID,91.4321,VALID,0,VALID,24.6769,VALID,29,VALID,1.76016,
2010-01-02, 00:48:04,VALID,1003.33,VALID,0,VALID,90.6845,VALID,0,VALID,24.6556,VALID,22,VALID,1.56914,
2010-01-02, 00:49:04,VALID,1003.31,VALID,0,VALID,90.3107,VALID,0,VALID,24.6983,VALID,19,VALID,1.5207,
2010-01-02, 00:50:04,VALID,1003.3,VALID,0,VALID,90.2802,VALID,0,VALID,24.6574,VALID,35,VALID,1.78711,
2010-01-02, 00:51:04,VALID,1003.19,VALID,0,VALID,90.1047,VALID,0,VALID,24.6593,VALID,19,VALID,2.78477,
2010-01-02, 00:52:04,VALID,1003.2,VALID,0,VALID,89.8987,VALID,0,VALID,24.638,VALID,48,VALID,1.66094,
2010-01-02, 00:53:04,VALID,1003.18,VALID,0,VALID,90.12,VALID,0,VALID,24.6398,VALID,20,VALID,1.82383,
2010-01-02, 00:54:04,VALID,1003.14,VALID,0,VALID,90.1276,VALID,0,VALID,24.6009,VALID,30,VALID,1.96328,
2010-01-02, 00:55:04,VALID,1003.1,VALID,0,VALID,89.7233,VALID,0,VALID,24.5814,VALID,31,VALID,2.79375,
2010-01-02, 00:56:04,VALID,1003.1,VALID,0,VALID,89.3494,VALID,0,VALID,24.6204,VALID,26,VALID,2.91719,
2010-01-02, 00:57:04,VALID,1003.08,VALID,0,VALID,89.0443,VALID,0,VALID,24.5796,VALID,14,VALID,2.06719,
2010-01-02, 00:58:04,VALID,1003.04,VALID,0,VALID,88.167,VALID,0,VALID,24.599,VALID,15,VALID,2.36445,
2010-01-02, 00:59:04,VALID,1003.06,VALID,0,VALID,88.7468,VALID,0.100563,VALID,24.6166,VALID,26,VALID,2.275,
2010-01-02, 01:00:04,VALID,1003.04,VALID,0,VALID,88.9375,VALID,0.100563,VALID,24.5564,VALID,30,VALID,1.44844,
2010-01-02, 01:01:04,VALID,1002.96,VALID,0,VALID,88.4264,VALID,0,VALID,24.5582,VALID,19,VALID,2.20195,
2010-01-02, 01:02:04,VALID,1002.98,VALID,0,VALID,88.3119,VALID,0.100563,VALID,24.5601,VALID,17,VALID,2.26328,
2010-01-02, 01:03:04,VALID,1002.95,VALID,0,VALID,87.5872,VALID,0,VALID,24.5388,VALID,26,VALID,2.17266,
2010-01-02, 01:04:04,VALID,1002.9,VALID,0,VALID,87.0074,VALID,0,VALID,24.5601,VALID,38,VALID,2.03164,
2010-01-02, 01:05:04,VALID,1002.92,VALID,0,VALID,87.2744,VALID,0,VALID,24.6166,VALID,49,VALID,1.24883,
2010-01-02, 01:06:04,VALID,1002.9,VALID,0,VALID,86.8777,VALID,0,VALID,24.638,VALID,20,VALID,2.02695,
2010-01-02, 01:07:04,VALID,1002.87,VALID,0,VALID,86.4886,VALID,0,VALID,24.6964,VALID,20,VALID,2.43203,
2010-01-02, 01:08:04,VALID,1002.85,VALID,0,VALID,86.2064,VALID,0.100563,VALID,24.7159,VALID,29,VALID,2.01836,
2010-01-02, 01:09:04,VALID,1002.86,VALID,0,VALID,86.3513,VALID,0.100563,VALID,24.714,VALID,47,VALID,2.4168,
2010-01-02, 01:10:04,VALID,1002.83,VALID,0,VALID,86.7175,VALID,0,VALID,24.6945,VALID,24,VALID,2.06406,
2010-01-02, 01:11:04,VALID,1002.82,VALID,0,VALID,86.6946,VALID,0.100563,VALID,24.714,VALID,40,VALID,0.975391,
2010-01-02, 01:12:04,VALID,1002.8,VALID,0,VALID,86.5039,VALID,0.100563,VALID,24.714,VALID,23,VALID,1.71914,
2010-01-02, 01:13:04,VALID,1002.76,VALID,0,VALID,86.3666,VALID,0,VALID,24.7529,VALID,51,VALID,1.88789,
2010-01-02, 01:14:04,VALID,1002.73,VALID,0,VALID,85.6952,VALID,0,VALID,24.7919,VALID,22,VALID,2.65039,
2010-01-02, 01:15:04,VALID,1002.7,VALID,0,VALID,85.7791,VALID,0,VALID,24.8503,VALID,26,VALID,2.95234,
2010-01-02, 01:16:04,VALID,1002.67,VALID,0,VALID,85.9241,VALID,0.100563,VALID,24.8308,VALID,21,VALID,2.13828,
2010-01-02, 01:17:04,VALID,1002.67,VALID,0,VALID,85.7562,VALID,0.100563,VALID,24.8716,VALID,26,VALID,2.15664,
2010-01-02, 01:18:04,VALID,1002.61,VALID,0,VALID,85.6723,VALID,0.100563,VALID,24.8308,VALID,20,VALID,2.10898,
2010-01-02, 01:19:04,VALID,1002.6,VALID,0,VALID,85.6876,VALID,0,VALID,24.8522,VALID,19,VALID,1.89531,
2010-01-02, 01:20:04,VALID,1002.6,VALID,0,VALID,85.7944,VALID,0,VALID,24.8113,VALID,20,VALID,1.94648,
2010-01-02, 01:21:04,VALID,1002.55,VALID,0,VALID,85.8249,VALID,0.100563,VALID,24.8113,VALID,12,VALID,1.64492,
2010-01-02, 01:22:04,VALID,1002.52,VALID,0,VALID,85.4129,VALID,0,VALID,24.8308,VALID,24,VALID,1.2875,
2010-01-02, 01:23:04,VALID,1002.5,VALID,0,VALID,85.2604,VALID,0,VALID,24.8503,VALID,20,VALID,1.34297,
2010-01-02, 01:24:04,VALID,1002.44,VALID,0,VALID,84.9094,VALID,0,VALID,24.8697,VALID,31,VALID,1.15781,
2010-01-02, 01:25:04,VALID,1002.43,VALID,0,VALID,84.9552,VALID,0,VALID,24.8697,VALID,29,VALID,1.3957,
2010-01-02, 01:26:04,VALID,1002.37,VALID,0,VALID,84.94,VALID,0.100563,VALID,24.8503,VALID,16,VALID,1.675,
2010-01-02, 01:27:04,VALID,1002.4,VALID,0,VALID,84.9857,VALID,0.100563,VALID,24.8503,VALID,20,VALID,1.35391,
2010-01-02, 01:28:04,VALID,1002.36,VALID,0,VALID,85.2375,VALID,0.100563,VALID,24.8503,VALID,19,VALID,1.15156,
2010-01-02, 01:29:04,VALID,1002.37,VALID,0,VALID,85.4358,VALID,0,VALID,24.8113,VALID,22,VALID,1.66406,
2010-01-02, 01:30:04,VALID,1002.37,VALID,0,VALID,85.4892,VALID,0,VALID,24.7724,VALID,21,VALID,1.80547,
2010-01-02, 01:31:04,VALID,1002.35,VALID,0,VALID,85.6647,VALID,0.100563,VALID,24.7529,VALID,31,VALID,1.52422,
2010-01-02, 01:32:04,VALID,1002.35,VALID,0,VALID,85.7181,VALID,0,VALID,24.7353,VALID,35,VALID,1.11133,
2010-01-02, 01:33:04,VALID,1002.34,VALID,0,VALID,85.4129,VALID,0.100563,VALID,24.7335,VALID,25,VALID,2.03203,
2010-01-02, 01:34:04,VALID,1002.34,VALID,0,VALID,85.4358,VALID,0,VALID,24.7937,VALID,21,VALID,1.1332,
2010-01-02, 01:35:04,VALID,1002.36,VALID,0,VALID,85.3214,VALID,0,VALID,24.7529,VALID,25,VALID,1.41406,
2010-01-02, 01:36:04,VALID,1002.28,VALID,0,VALID,84.5051,VALID,0.100563,VALID,24.7919,VALID,33,VALID,1.6875,
2010-01-02, 01:37:04,VALID,1002.28,VALID,0,VALID,84.5433,VALID,0,VALID,24.8308,VALID,29,VALID,1.03672,
2010-01-02, 01:38:04,VALID,1002.22,VALID,0,VALID,84.6806,VALID,0,VALID,24.8522,VALID,20,VALID,0.930469,
2010-01-02, 01:39:04,VALID,1002.2,VALID,0,VALID,84.6729,VALID,0.100563,VALID,24.8308,VALID,23,VALID,1.3168,
2010-01-02, 01:40:04,VALID,1002.16,VALID,0,VALID,84.5661,VALID,0.100563,VALID,24.8522,VALID,30,VALID,1.63555,
2010-01-02, 01:41:04,VALID,1002.13,VALID,0,VALID,84.5585,VALID,0,VALID,24.8308,VALID,27,VALID,1.44609,
2010-01-02, 01:42:04,VALID,1002.16,VALID,0,VALID,84.2076,VALID,0,VALID,24.8522,VALID,48,VALID,1.20664,
2010-01-02, 01:43:04,VALID,1002.16,VALID,0,VALID,84.1771,VALID,0,VALID,24.8911,VALID,11,VALID,1.38828,
2010-01-02, 01:44:04,VALID,1002.18,VALID,0,VALID,84.116,VALID,0,VALID,24.8911,VALID,27,VALID,1.36719,
2010-01-02, 01:45:04,VALID,1002.21,VALID,0,VALID,84.4975,VALID,0,VALID,24.8679,VALID,25,VALID,0.340625,
2010-01-02, 01:46:04,VALID,1002.22,VALID,0,VALID,84.8179,VALID,0,VALID,24.8911,VALID,53,VALID,0.924219,
2010-01-02, 01:47:04,VALID,1002.22,VALID,0,VALID,84.1008,VALID,0,VALID,24.8522,VALID,33,VALID,0.862109,
2010-01-02, 01:48:04,VALID,1002.22,VALID,0,VALID,84.2686,VALID,0,VALID,24.8892,VALID,21,VALID,1.06562,
2010-01-02, 01:49:04,VALID,1002.2,VALID,0,VALID,84.1847,VALID,0,VALID,24.9495,VALID,19,VALID,1.01602,
2010-01-02, 01:50:04,VALID,1002.15,VALID,0,VALID,83.8414,VALID,0,VALID,24.9282,VALID,26,VALID,1.07109,
2010-01-02, 01:51:04,VALID,1002.12,VALID,0,VALID,83.2158,VALID,0,VALID,24.9866,VALID,21,VALID,1.2875,
2010-01-02, 01:52:04,VALID,1002.09,VALID,0,VALID,83.6202,VALID,0,VALID,25.0469,VALID,17,VALID,0.905078,
2010-01-02, 01:53:04,VALID,1002.05,VALID,0,VALID,83.2235,VALID,0.100563,VALID,25.0858,VALID,28,VALID,0.838281,
2010-01-02, 01:54:04,VALID,1002.01,VALID,0,VALID,83.3684,VALID,0,VALID,25.045,VALID,30,VALID,1.00664,
2010-01-02, 01:55:04,VALID,1002.02,VALID,0,VALID,83.4142,VALID,0.100563,VALID,25.0469,VALID,346,VALID,0.544141,
2010-01-02, 01:56:04,VALID,1002.03,VALID,0,VALID,84.0169,VALID,0,VALID,25.006,VALID,346,VALID,0.314453,
2010-01-02, 01:57:04,VALID,1002.03,VALID,0,VALID,84.4364,VALID,0,VALID,24.9866,VALID,346,VALID,0.338281,
2010-01-02, 01:58:04,VALID,1002,VALID,0,VALID,84.9857,VALID,0,VALID,24.9282,VALID,346,VALID,0.33125,
2010-01-02, 01:59:04,VALID,1001.99,VALID,0,VALID,85.2756,VALID,0,VALID,24.8911,VALID,346,VALID,0.200391,
2010-01-02, 02:00:04,VALID,1001.99,VALID,0,VALID,86.1377,VALID,0,VALID,24.7937,VALID,346,VALID,0,
2010-01-02, 02:01:04,VALID,1001.99,VALID,0,VALID,86.0385,VALID,0.100563,VALID,24.7159,VALID,346,VALID,0.425,
2010-01-02, 02:02:04,VALID,1002.01,VALID,0,VALID,86.8395,VALID,0,VALID,24.6166,VALID,347,VALID,0.620313,
2010-01-02, 02:03:04,VALID,1002.02,VALID,0,VALID,87.6253,VALID,0,VALID,24.5601,VALID,347,VALID,0.582031,
2010-01-02, 02:04:04,VALID,1002.01,VALID,0,VALID,88.0525,VALID,0,VALID,24.4609,VALID,347,VALID,0.600781,
2010-01-02, 02:05:04,VALID,1001.99,VALID,0,VALID,88.4035,VALID,0,VALID,24.4043,VALID,332,VALID,0.458594,
2010-01-02, 02:06:04,VALID,1002.03,VALID,0,VALID,88.7391,VALID,0,VALID,24.3265,VALID,334,VALID,0.250391,
2010-01-02, 02:07:04,VALID,1002.05,VALID,0,VALID,89.0367,VALID,0,VALID,24.2875,VALID,334,VALID,0.0976563,
2010-01-02, 02:08:04,VALID,1002.07,VALID,0,VALID,88.9146,VALID,0,VALID,24.2681,VALID,334,VALID,0.317969,
2010-01-02, 02:09:04,VALID,1002.08,VALID,0,VALID,88.9222,VALID,0,VALID,24.2681,VALID,336,VALID,0.0359375,
2010-01-02, 02:10:04,VALID,1002.09,VALID,0,VALID,88.8002,VALID,0,VALID,24.2681,VALID,340,VALID,0.332812,
2010-01-02, 02:11:04,VALID,1002.1,VALID,0,VALID,88.4187,VALID,0,VALID,24.2681,VALID,340,VALID,0.0425781,
2010-01-02, 02:12:04,VALID,1002.09,VALID,0,VALID,88.2585,VALID,0,VALID,24.2857,VALID,340,VALID,0.293359,
2010-01-02, 02:13:04,VALID,1002.1,VALID,0,VALID,88.3653,VALID,0,VALID,24.3246,VALID,340,VALID,0.367578,
2010-01-02, 02:14:04,VALID,1002.13,VALID,0,VALID,88.3195,VALID,0,VALID,24.3246,VALID,340,VALID,0.402734,
2010-01-02, 02:15:04,VALID,1002.14,VALID,0,VALID,88.434,VALID,0,VALID,24.3441,VALID,340,VALID,0.321875,
2010-01-02, 02:16:04,VALID,1002.15,VALID,0,VALID,88.5866,VALID,0,VALID,24.3246,VALID,340,VALID,0.383984,
2010-01-02, 02:17:04,VALID,1002.16,VALID,0,VALID,88.9833,VALID,0.100563,VALID,24.3033,VALID,340,VALID,0.369922,
2010-01-02, 02:18:04,VALID,1002.15,VALID,0,VALID,89.0977,VALID,0,VALID,24.2662,VALID,340,VALID,0.441406,
2010-01-02, 02:19:04,VALID,1002.17,VALID,0,VALID,89.4944,VALID,0,VALID,24.2468,VALID,340,VALID,0.483594,
2010-01-02, 02:20:04,VALID,1002.19,VALID,0,VALID,89.5631,VALID,0,VALID,24.1884,VALID,340,VALID,0.285156,
2010-01-02, 02:21:04,VALID,1002.18,VALID,0,VALID,89.7843,VALID,0,VALID,24.1494,VALID,340,VALID,0.353906,
2010-01-02, 02:22:04,VALID,1002.2,VALID,0,VALID,89.853,VALID,0,VALID,24.13,VALID,340,VALID,0.460156,
2010-01-02, 02:23:04,VALID,1002.22,VALID,0,VALID,89.9979,VALID,0,VALID,24.1318,VALID,340,VALID,0.251172,
2010-01-02, 02:24:04,VALID,1002.25,VALID,0,VALID,90.1886,VALID,0,VALID,24.091,VALID,340,VALID,0.0949219,
2010-01-02, 02:25:04,VALID,1002.28,VALID,0,VALID,90.2878,VALID,0,VALID,24.0929,VALID,340,VALID,0.0476562,
2010-01-02, 02:26:04,VALID,1002.26,VALID,0,VALID,90.2954,VALID,0,VALID,24.0521,VALID,340,VALID,0,
2010-01-02, 02:27:04,VALID,1002.31,VALID,0,VALID,90.4327,VALID,0,VALID,24.0734,VALID,340,VALID,0,
2010-01-02, 02:28:04,VALID,1002.34,VALID,0,VALID,90.509,VALID,0,VALID,24.0521,VALID,340,VALID,0.126953,
2010-01-02, 02:29:04,VALID,1002.35,VALID,0,VALID,90.6845,VALID,0,VALID,24.0734,VALID,321,VALID,0.390234,
2010-01-02, 02:30:04,VALID,1002.37,VALID,0,VALID,90.8829,VALID,0,VALID,24.1123,VALID,321,VALID,0,
2010-01-02, 02:31:04,VALID,1002.38,VALID,0,VALID,90.9439,VALID,0,VALID,24.1123,VALID,321,VALID,0.003125,
2010-01-02, 02:32:04,VALID,1002.39,VALID,0,VALID,91.0354,VALID,0,VALID,24.1123,VALID,321,VALID,0,
2010-01-02, 02:33:04,VALID,1002.37,VALID,0,VALID,91.2185,VALID,0,VALID,24.1123,VALID,321,VALID,0,
2010-01-02, 02:34:04,VALID,1002.38,VALID,0,VALID,91.2719,VALID,0,VALID,24.0521,VALID,321,VALID,0.275391,
2010-01-02, 02:35:04,VALID,1002.35,VALID,0,VALID,91.333,VALID,0,VALID,24.0539,VALID,321,VALID,0.230469,
2010-01-02, 02:36:04,VALID,1002.36,VALID,0,VALID,91.3177,VALID,0,VALID,24.015,VALID,321,VALID,0,
2010-01-02, 02:37:04,VALID,1002.35,VALID,0,VALID,91.249,VALID,0,VALID,24.015,VALID,321,VALID,0,
2010-01-02, 02:38:04,VALID,1002.34,VALID,0,VALID,91.2948,VALID,0,VALID,23.9955,VALID,321,VALID,0,
2010-01-02, 02:39:04,VALID,1002.29,VALID,0,VALID,91.2643,VALID,0,VALID,23.9955,VALID,321,VALID,0.195703,
2010-01-02, 02:40:04,VALID,1002.32,VALID,0,VALID,91.4398,VALID,0,VALID,23.9742,VALID,321,VALID,0.259766,
2010-01-02, 02:41:04,VALID,1002.31,VALID,0,VALID,91.6229,VALID,0,VALID,23.9353,VALID,321,VALID,0.416016,
2010-01-02, 02:42:04,VALID,1002.33,VALID,0,VALID,91.8441,VALID,0,VALID,23.9353,VALID,311,VALID,0.613672,
2010-01-02, 02:43:04,VALID,1002.31,VALID,0,VALID,92.0653,VALID,0,VALID,23.9566,VALID,310,VALID,0,
2010-01-02, 02:44:04,VALID,1002.28,VALID,0,VALID,92.0424,VALID,0,VALID,23.8964,VALID,310,VALID,0.401172,
2010-01-02, 02:45:04,VALID,1002.25,VALID,0,VALID,92.073,VALID,0,VALID,23.9389,VALID,353,VALID,0.424219,
2010-01-02, 02:46:04,VALID,1002.24,VALID,0,VALID,92.1721,VALID,0,VALID,23.8964,VALID,353,VALID,0.477734,
2010-01-02, 02:47:04,VALID,1002.18,VALID,0,VALID,92.134,VALID,0,VALID,23.8982,VALID,353,VALID,0.58125,
2010-01-02, 02:48:04,VALID,1002.14,VALID,0,VALID,92.0958,VALID,0,VALID,23.8787,VALID,345,VALID,0.683984,
2010-01-02, 02:49:04,VALID,1002.12,VALID,0,VALID,92.0882,VALID,0,VALID,23.838,VALID,343,VALID,0.663281,
2010-01-02, 02:50:04,VALID,1002.1,VALID,0,VALID,92.1492,VALID,0,VALID,23.8805,VALID,354,VALID,0.650391,
2010-01-02, 02:51:04,VALID,1002.09,VALID,0,VALID,92.1492,VALID,0,VALID,23.8185,VALID,336,VALID,0.561719,
2010-01-02, 02:52:04,VALID,1002.06,VALID,0,VALID,92.1569,VALID,0,VALID,23.838,VALID,329,VALID,0,
2010-01-02, 02:53:04,VALID,1002.09,VALID,0,VALID,92.1798,VALID,0,VALID,23.8398,VALID,307,VALID,0,
2010-01-02, 02:54:04,VALID,1002.08,VALID,0,VALID,92.2027,VALID,0.100563,VALID,23.838,VALID,307,VALID,0,
2010-01-02, 02:55:04,VALID,1002.13,VALID,0,VALID,92.2332,VALID,0,VALID,23.8593,VALID,307,VALID,0,
2010-01-02, 02:56:04,VALID,1002.16,VALID,0,VALID,92.2713,VALID,0,VALID,23.838,VALID,307,VALID,0,
2010-01-02, 02:57:04,VALID,1002.21,VALID,0,VALID,92.2789,VALID,0,VALID,23.8787,VALID,312,VALID,0,
2010-01-02, 02:58:04,VALID,1002.23,VALID,0,VALID,92.2561,VALID,0,VALID,23.8982,VALID,312,VALID,0,
2010-01-02, 02:59:04,VALID,1002.26,VALID,0,VALID,92.2103,VALID,0,VALID,23.8769,VALID,312,VALID,0,
2010-01-02, 03:00:04,VALID,1002.3,VALID,0,VALID,92.2255,VALID,0,VALID,23.8575,VALID,312,VALID,0,
2010-01-02, 03:01:04,VALID,1002.31,VALID,0,VALID,92.2866,VALID,0,VALID,23.8787,VALID,312,VALID,0,
2010-01-02, 03:02:04,VALID,1002.34,VALID,0,VALID,92.3323,VALID,0,VALID,23.838,VALID,312,VALID,0,
2010-01-02, 03:03:04,VALID,1002.35,VALID,0,VALID,92.3705,VALID,0,VALID,23.8593,VALID,312,VALID,0,
2010-01-02, 03:04:04,VALID,1002.38,VALID,0,VALID,92.3476,VALID,0,VALID,23.8575,VALID,306,VALID,0,
2010-01-02, 03:05:04,VALID,1002.39,VALID,0,VALID,92.2332,VALID,0.100563,VALID,23.8787,VALID,306,VALID,0,
2010-01-02, 03:06:04,VALID,1002.45,VALID,0,VALID,92.2789,VALID,0,VALID,23.8964,VALID,306,VALID,0,
2010-01-02, 03:07:04,VALID,1002.46,VALID,0,VALID,92.2561,VALID,0,VALID,23.9566,VALID,306,VALID,0,
2010-01-02, 03:08:04,VALID,1002.47,VALID,0,VALID,92.3323,VALID,0,VALID,23.9548,VALID,306,VALID,0,
2010-01-02, 03:09:04,VALID,1002.49,VALID,0,VALID,92.3857,VALID,0,VALID,23.9742,VALID,306,VALID,0,
2010-01-02, 03:10:04,VALID,1002.46,VALID,0,VALID,92.4239,VALID,0.100563,VALID,23.9724,VALID,299,VALID,0.170312,
2010-01-02, 03:11:04,VALID,1002.47,VALID,0,VALID,92.0577,VALID,0,VALID,23.9937,VALID,280,VALID,0.0773437,
2010-01-02, 03:12:04,VALID,1002.47,VALID,0,VALID,91.6457,VALID,0,VALID,24.0521,VALID,280,VALID,0.040625,
2010-01-02, 03:13:04,VALID,1002.45,VALID,0,VALID,91.3253,VALID,0,VALID,24.0503,VALID,304,VALID,0.590234,
2010-01-02, 03:14:04,VALID,1002.42,VALID,0,VALID,91.3635,VALID,0.100563,VALID,24.13,VALID,9,VALID,0.751953,
2010-01-02, 03:15:04,VALID,1002.43,VALID,0,VALID,91.3787,VALID,0.100563,VALID,24.0929,VALID,18,VALID,0.807031,
2010-01-02, 03:16:04,VALID,1002.43,VALID,0,VALID,91.5313,VALID,0,VALID,24.0326,VALID,18,VALID,0.621094,
2010-01-02, 03:17:04,VALID,1002.42,VALID,0,VALID,91.6839,VALID,0,VALID,23.9937,VALID,18,VALID,0.576563,
2010-01-02, 03:18:04,VALID,1002.41,VALID,0,VALID,91.8899,VALID,0,VALID,23.9353,VALID,18,VALID,0.427734,
2010-01-02, 03:19:04,VALID,1002.41,VALID,0,VALID,92.0501,VALID,0,VALID,23.8964,VALID,18,VALID,0.306641,
2010-01-02, 03:20:04,VALID,1002.4,VALID,0,VALID,92.2027,VALID,0,VALID,23.8593,VALID,18,VALID,0,
2010-01-02, 03:21:04,VALID,1002.37,VALID,0,VALID,92.3018,VALID,0.100563,VALID,23.8185,VALID,18,VALID,0,
2010-01-02, 03:22:04,VALID,1002.38,VALID,0,VALID,92.4544,VALID,0,VALID,23.7796,VALID,18,VALID,0,
2010-01-02, 03:23:04,VALID,1002.4,VALID,0,VALID,92.5307,VALID,0,VALID,23.7814,VALID,17,VALID,0,
2010-01-02, 03:24:04,VALID,1002.37,VALID,0,VALID,92.6604,VALID,0,VALID,23.7601,VALID,17,VALID,0,
2010-01-02, 03:25:04,VALID,1002.39,VALID,0,VALID,92.7443,VALID,0,VALID,23.7212,VALID,12,VALID,0,
2010-01-02, 03:26:04,VALID,1002.36,VALID,0,VALID,92.813,VALID,0,VALID,23.7425,VALID,12,VALID,0,
2010-01-02, 03:27:04,VALID,1002.38,VALID,0,VALID,92.8816,VALID,0,VALID,23.7035,VALID,12,VALID,0,
2010-01-02, 03:28:04,VALID,1002.37,VALID,0,VALID,92.9808,VALID,0,VALID,23.6416,VALID,12,VALID,0,
2010-01-02, 03:29:04,VALID,1002.39,VALID,0,VALID,93.0571,VALID,0,VALID,23.6239,VALID,12,VALID,0,
2010-01-02, 03:30:04,VALID,1002.37,VALID,0,VALID,93.1486,VALID,0,VALID,23.6239,VALID,12,VALID,0,
2010-01-02, 03:31:04,VALID,1002.38,VALID,0,VALID,93.2325,VALID,0,VALID,23.6044,VALID,12,VALID,0,
2010-01-02, 03:32:04,VALID,1002.34,VALID,0,VALID,93.3241,VALID,0,VALID,23.585,VALID,12,VALID,0,
2010-01-02, 03:33:04,VALID,1002.36,VALID,0,VALID,93.4004,VALID,0.100563,VALID,23.585,VALID,12,VALID,0,
2010-01-02, 03:34:04,VALID,1002.32,VALID,0,VALID,93.5072,VALID,0,VALID,23.5655,VALID,12,VALID,0,
2010-01-02, 03:35:04,VALID,1002.26,VALID,0,VALID,93.553,VALID,0,VALID,23.5868,VALID,12,VALID,0,
2010-01-02, 03:36:04,VALID,1002.28,VALID,0,VALID,93.614,VALID,0.100563,VALID,23.5655,VALID,12,VALID,0,
2010-01-02, 03:37:04,VALID,1002.29,VALID,0,VALID,93.675,VALID,0,VALID,23.546,VALID,12,VALID,0,
2010-01-02, 03:38:04,VALID,1002.29,VALID,0,VALID,93.7132,VALID,0,VALID,23.546,VALID,12,VALID,0,
2010-01-02, 03:39:04,VALID,1002.26,VALID,0,VALID,93.7361,VALID,0,VALID,23.546,VALID,12,VALID,0,
2010-01-02, 03:40:04,VALID,1002.27,VALID,0,VALID,93.7284,VALID,0,VALID,23.546,VALID,12,VALID,0,
2010-01-02, 03:41:04,VALID,1002.29,VALID,0,VALID,93.7742,VALID,0.100563,VALID,23.5443,VALID,12,VALID,0,
2010-01-02, 03:42:04,VALID,1002.31,VALID,0,VALID,93.7818,VALID,0,VALID,23.5868,VALID,12,VALID,0,
2010-01-02, 03:43:04,VALID,1002.3,VALID,0,VALID,93.7818,VALID,0,VALID,23.5655,VALID,12,VALID,0,
2010-01-02, 03:44:04,VALID,1002.3,VALID,0,VALID,93.7971,VALID,0,VALID,23.5655,VALID,12,VALID,0,
2010-01-02, 03:45:04,VALID,1002.29,VALID,0,VALID,93.7971,VALID,0,VALID,23.5655,VALID,12,VALID,0,
2010-01-02, 03:46:04,VALID,1002.31,VALID,0,VALID,93.7895,VALID,0,VALID,23.546,VALID,12,VALID,0,
2010-01-02, 03:47:04,VALID,1002.29,VALID,0,VALID,93.7971,VALID,0,VALID,23.546,VALID,12,VALID,0,